2021/01/12 21:19:05+0000,-41.02,-50.08,-33.90,-52.99,-55.63,-55.18
2021/01/12 21:19:57+0000,-40.97,-50.71,-34.10,-51.24,-56.29,-55.59
2021/01/12 21:20:49+0000,-41.34,-50.27,-34.46,-52.67,-55.94,-56.02
2021/01/12 21:21:48+0000,-41.15,-50.58,-34.01,-52.11,-55.49,-55.79
2021/01/12 21:22:40+0000,-41.52,-51.08,-34.41,-50.01,-55.59,-56.09
2021/01/12 21:23:32+0000,-41.13,-49.71,-34.78,-50.47,-55.92,-56.03
2021/01/12 21:24:24+0000,-41.32,-50.35,-34.20,-50.42,-55.67,-55.78
2021/01/12 21:25:16+0000,-41.03,-50.50,-34.51,-50.00,-55.43,-56.31
2021/01/12 21:26:08+0000,-39.98,-50.04,-34.06,-50.22,-55.51,-56.61
2021/01/12 21:27:00+0000,-41.24,-49.55,-34.35,-50.82,-55.32,-55.72
2021/01/12 21:27:52+0000,-41.59,-51.03,-34.28,-51.63,-55.42,-55.75
2021/01/12 21:28:44+0000,-40.08,-50.69,-33.92,-50.24,-55.32,-55.63
2021/01/12 21:29:37+0000,-40.36,-51.17,-34.58,-50.75,-55.17,-55.59
2021/01/12 21:30:29+0000,-40.61,-50.70,-34.07,-50.16,-55.59,-55.94
2021/01/12 21:31:29+0000,-40.23,-51.00,-34.64,-50.14,-55.38,-55.72
2021/01/12 21:32:21+0000,-40.39,-50.14,-34.08,-51.46,-54.65,-55.94
2021/01/12 21:33:13+0000,-40.49,-50.25,-34.04,-49.47,-54.60,-55.35
2021/01/12 21:34:05+0000,-39.84,-50.06,-34.15,-52.89,-55.72,-55.86
2021/01/12 21:34:57+0000,-39.83,-49.11,-34.40,-50.41,-55.17,-55.78
2021/01/12 21:35:49+0000,-40.96,-50.21,-33.95,-53.29,-54.78,-55.59
2021/01/12 21:36:41+0000,-40.99,-50.31,-34.60,-50.10,-55.09,-55.77
2021/01/12 21:37:33+0000,-41.36,-49.54,-34.19,-53.55,-55.12,-55.58
2021/01/12 21:38:25+0000,-40.24,-49.77,-33.96,-50.31,-55.43,-55.44
2021/01/12 21:39:17+0000,-40.51,-49.92,-34.50,-51.75,-54.63,-55.75
2021/01/12 21:40:10+0000,-40.28,-49.74,-33.87,-49.97,-55.16,-55.96
2021/01/12 21:41:10+0000,-40.51,-50.34,-34.21,-50.36,-54.86,-56.13
2021/01/12 21:42:02+0000,-40.70,-49.57,-34.50,-49.64,-55.05,-55.87
2021/01/12 21:42:54+0000,-40.44,-50.11,-33.91,-50.09,-54.22,-55.58
2021/01/12 21:43:46+0000,-40.77,-49.99,-33.81,-49.61,-55.02,-56.18
2021/01/12 21:44:38+0000,-41.04,-50.99,-33.86,-49.61,-55.41,-56.38
2021/01/12 21:45:30+0000,-40.96,-50.10,-34.16,-50.27,-55.27,-56.06
2021/01/12 21:46:22+0000,-40.66,-49.87,-34.33,-50.24,-55.45,-55.30
2021/01/12 21:47:14+0000,-40.93,-50.20,-34.12,-48.77,-54.56,-56.41
2021/01/12 21:48:06+0000,-41.06,-49.82,-34.17,-53.81,-55.20,-56.15
2021/01/12 21:48:58+0000,-40.91,-49.66,-34.46,-46.61,-55.28,-55.56
2021/01/12 21:49:50+0000,-40.86,-50.00,-34.29,-53.13,-54.62,-56.02
2021/01/12 21:50:42+0000,-40.59,-49.52,-33.62,-50.70,-55.34,-55.73
2021/01/12 21:51:43+0000,-40.38,-48.73,-34.47,-50.63,-53.72,-55.59
2021/01/12 21:52:35+0000,-40.76,-49.34,-33.86,-52.71,-54.21,-55.84
2021/01/12 21:53:27+0000,-40.60,-48.54,-33.94,-48.53,-54.29,-55.99
2021/01/12 21:54:19+0000,-41.14,-49.65,-33.99,-49.73,-53.92,-55.95
2021/01/12 21:55:11+0000,-40.70,-49.75,-34.18,-49.86,-54.47,-55.54
2021/01/12 21:56:03+0000,-40.88,-49.66,-33.88,-47.89,-53.81,-56.06
2021/01/12 21:56:55+0000,-41.80,-49.02,-33.78,-48.77,-54.17,-56.06
2021/01/12 21:57:47+0000,-41.77,-50.60,-34.46,-48.34,-54.15,-55.29
2021/01/12 21:58:39+0000,-41.64,-50.37,-34.76,-48.06,-53.94,-55.51
2021/01/12 21:59:31+0000,-41.93,-49.73,-34.20,-47.47,-53.89,-56.20
2021/01/12 22:00:23+0000,-41.81,-50.07,-34.53,-47.51,-54.75,-56.29
2021/01/12 22:01:23+0000,-40.65,-49.46,-34.07,-48.74,-54.64,-56.05
2021/01/12 22:02:15+0000,-41.35,-49.87,-34.72,-48.34,-54.28,-55.86
2021/01/12 22:03:07+0000,-41.48,-50.26,-34.09,-48.91,-54.05,-56.37
2021/01/12 22:03:59+0000,-41.62,-50.20,-34.59,-46.71,-54.49,-55.61
2021/01/12 22:04:51+0000,-41.57,-50.35,-34.04,-46.52,-54.87,-55.68
2021/01/12 22:05:43+0000,-41.33,-50.24,-34.75,-48.83,-56.24,-55.88
2021/01/12 22:06:35+0000,-41.33,-50.82,-34.36,-49.38,-54.62,-56.03
2021/01/12 22:07:27+0000,-41.46,-49.37,-34.13,-46.41,-54.66,-56.15
2021/01/12 22:08:19+0000,-41.62,-51.26,-34.23,-52.17,-54.40,-56.03
2021/01/12 22:09:11+0000,-41.36,-50.45,-34.70,-47.91,-53.87,-56.00
2021/01/12 22:10:03+0000,-41.79,-50.08,-34.13,-52.57,-53.85,-55.35
2021/01/12 22:11:04+0000,-41.84,-50.75,-34.49,-52.71,-53.58,-55.99
2021/01/12 22:11:56+0000,-41.46,-50.51,-34.43,-48.08,-53.96,-55.76
2021/01/12 22:12:48+0000,-41.17,-48.37,-34.40,-52.53,-53.71,-55.56
2021/01/12 22:13:40+0000,-40.78,-50.82,-34.38,-46.77,-54.00,-55.75
2021/01/12 22:14:32+0000,-42.07,-48.11,-34.56,-48.05,-54.48,-55.73
2021/01/12 22:15:24+0000,-41.37,-50.42,-34.30,-47.25,-54.11,-56.14
2021/01/12 22:16:16+0000,-40.95,-49.69,-34.43,-45.83,-54.57,-55.76
2021/01/12 22:17:08+0000,-40.63,-50.81,-34.22,-46.37,-54.29,-56.02
2021/01/12 22:18:00+0000,-40.86,-50.40,-27.30,-46.50,-54.77,-56.27
2021/01/12 22:18:52+0000,-40.25,-51.37,-33.96,-44.77,-54.29,-55.63
2021/01/12 22:19:44+0000,-40.43,-49.88,-34.11,-44.42,-54.81,-55.71
2021/01/12 22:20:37+0000,-41.11,-51.82,-27.17,-46.00,-54.34,-55.83
2021/01/12 22:21:37+0000,-40.05,-51.23,-26.55,-46.41,-53.85,-56.01
2021/01/12 22:22:29+0000,-40.22,-51.08,-34.04,-46.40,-54.24,-56.06
2021/01/12 22:23:21+0000,-41.08,-51.01,-34.56,-47.94,-54.74,-55.29
2021/01/12 22:24:13+0000,-40.41,-49.89,-34.58,-46.01,-54.66,-56.33
2021/01/12 22:25:05+0000,-40.72,-50.97,-27.05,-48.92,-54.09,-55.52
2021/01/12 22:25:57+0000,-40.40,-49.64,-34.94,-48.29,-54.08,-56.01
2021/01/12 22:26:49+0000,-40.93,-49.51,-33.83,-52.42,-53.21,-56.03
2021/01/12 22:27:41+0000,-40.60,-50.40,-34.13,-48.20,-53.78,-56.01
2021/01/12 22:28:33+0000,-40.72,-50.73,-34.22,-52.05,-53.90,-56.29
2021/01/12 22:29:25+0000,-40.64,-50.92,-34.48,-48.37,-53.54,-56.33
2021/01/12 22:30:18+0000,-40.35,-50.11,-34.36,-66.04,-54.01,-55.82
2021/01/12 22:31:18+0000,-40.16,-49.20,-34.50,-67.91,-55.93,-56.13
2021/01/12 22:32:10+0000,-40.40,-50.73,-34.09,-47.25,-53.50,-55.87
2021/01/12 22:33:02+0000,-40.83,-50.45,-34.42,-67.33,-52.84,-55.92
2021/01/12 22:33:54+0000,-41.24,-50.34,-34.19,-49.61,-54.42,-56.43
2021/01/12 22:34:46+0000,-40.95,-50.66,-34.34,-67.67,-55.06,-55.66
2021/01/12 22:35:38+0000,-41.07,-48.63,-34.22,-66.61,-54.97,-56.54
2021/01/12 22:36:30+0000,-41.46,-50.83,-34.06,-49.07,-54.51,-56.14
2021/01/12 22:37:22+0000,-40.65,-50.76,-34.02,-66.97,-53.93,-55.46
2021/01/12 22:38:14+0000,-40.50,-51.33,-34.39,-49.00,-53.33,-56.18
2021/01/12 22:39:06+0000,-40.47,-51.32,-33.79,-66.90,-53.69,-55.63
2021/01/12 22:39:58+0000,-40.47,-49.54,-34.86,-48.45,-53.64,-55.51
2021/01/12 22:40:50+0000,-40.88,-50.75,-34.03,-52.04,-53.42,-56.41
2021/01/12 22:41:50+0000,-41.08,-50.84,-34.93,-51.86,-53.97,-56.20
2021/01/12 22:42:42+0000,-40.57,-50.11,-34.70,-46.03,-53.94,-56.23
2021/01/12 22:43:35+0000,-40.82,-49.37,-34.45,-51.79,-53.89,-55.75
2021/01/12 22:44:27+0000,-40.60,-48.52,-34.25,-43.78,-54.21,-55.71
2021/01/12 22:45:19+0000,-39.41,-50.84,-33.89,-51.53,-53.97,-55.83
2021/01/12 22:46:11+0000,-39.54,-49.88,-34.12,-67.67,-53.96,-55.61
2021/01/12 22:47:03+0000,-39.43,-48.32,-34.27,-48.45,-53.79,-55.58
2021/01/12 22:47:55+0000,-40.31,-47.85,-34.28,-65.73,-54.33,-55.74
2021/01/12 22:48:47+0000,-40.37,-50.32,-34.63,-47.08,-54.30,-55.65
2021/01/12 22:49:39+0000,-39.91,-49.48,-34.33,-66.12,-54.33,-55.77
2021/01/12 22:50:31+0000,-40.20,-50.48,-34.48,-47.49,-54.81,-55.73
2021/01/12 22:51:32+0000,-39.79,-50.85,-34.10,-48.54,-54.94,-55.97
2021/01/12 22:52:24+0000,-40.74,-50.29,-34.01,-67.14,-54.29,-55.86
2021/01/12 22:53:16+0000,-40.05,-50.53,-34.66,-47.83,-54.37,-56.08
2021/01/12 22:54:08+0000,-39.93,-51.72,-34.77,-66.66,-55.44,-55.06
2021/01/12 22:55:00+0000,-39.13,-50.55,-34.45,-47.07,-54.48,-55.80
2021/01/12 22:55:52+0000,-39.87,-51.02,-34.13,-69.01,-54.14,-54.92
2021/01/12 22:56:44+0000,-38.20,-50.36,-34.65,-45.60,-55.17,-55.77
2021/01/12 22:57:36+0000,-39.02,-50.19,-34.54,-52.91,-54.91,-56.22
2021/01/12 22:58:28+0000,-38.92,-50.12,-34.33,-48.91,-55.38,-56.18
2021/01/12 22:59:20+0000,-39.60,-50.02,-34.28,-53.16,-54.89,-56.48
2021/01/12 23:00:12+0000,-38.69,-50.89,-33.56,-46.68,-55.18,-56.20
2021/01/12 23:01:13+0000,-39.69,-49.86,-33.92,-47.04,-54.89,-55.89
2021/01/12 23:02:05+0000,-39.83,-50.44,-34.15,-47.75,-54.71,-55.89
2021/01/12 23:02:57+0000,-39.65,-50.12,-34.00,-47.72,-54.77,-55.62
2021/01/12 23:03:49+0000,-40.01,-50.68,-33.78,-46.73,-54.88,-55.78
2021/01/12 23:04:42+0000,-39.59,-49.18,-34.82,-48.31,-54.82,-55.61
2021/01/12 23:05:34+0000,-39.69,-50.75,-34.36,-52.80,-55.10,-55.92
2021/01/12 23:06:26+0000,-39.63,-50.72,-34.48,-48.77,-54.78,-56.08
2021/01/12 23:07:18+0000,-39.75,-49.27,-33.81,-52.19,-54.70,-55.87
2021/01/12 23:08:10+0000,-39.74,-48.74,-33.79,-45.59,-54.05,-56.05
2021/01/12 23:09:02+0000,-39.60,-50.95,-34.21,-49.22,-54.58,-56.25
2021/01/12 23:09:54+0000,-39.68,-51.74,-34.14,-48.85,-54.92,-56.27
2021/01/12 23:10:46+0000,-38.78,-49.83,-33.98,-46.72,-53.79,-55.35
2021/01/12 23:11:46+0000,-38.93,-49.59,-34.04,-42.33,-53.89,-56.69
2021/01/12 23:12:38+0000,-39.39,-49.30,-33.99,-44.77,-54.39,-56.02
2021/01/12 23:13:30+0000,-38.26,-51.90,-34.00,-47.27,-54.12,-55.92
2021/01/12 23:14:22+0000,-38.75,-51.50,-34.20,-68.00,-54.17,-56.26
2021/01/12 23:15:14+0000,-38.11,-49.39,-34.42,-42.76,-53.84,-55.70
2021/01/12 23:16:06+0000,-38.59,-51.04,-34.21,-62.79,-54.34,-56.10
2021/01/12 23:16:58+0000,-38.44,-50.42,-34.49,-49.20,-54.17,-55.55
2021/01/12 23:17:50+0000,-39.05,-52.14,-33.88,-48.25,-53.78,-56.07
2021/01/12 23:18:42+0000,-39.00,-49.77,-34.72,-27.60,-55.56,-55.87
2021/01/12 23:19:35+0000,-39.16,-49.39,-34.61,-44.56,-55.62,-56.64
2021/01/12 23:20:27+0000,-39.18,-49.26,-34.16,-47.75,-56.25,-55.99
2021/01/12 23:21:27+0000,-38.77,-50.21,-34.45,-48.47,-55.90,-55.86
2021/01/12 23:22:19+0000,-39.43,-46.54,-34.06,-52.82,-56.02,-55.73
2021/01/12 23:23:11+0000,-38.88,-46.89,-33.70,-26.83,-56.16,-55.56
2021/01/12 23:24:03+0000,-39.24,-49.22,-33.75,-52.91,-56.36,-55.67
2021/01/12 23:24:55+0000,-39.75,-48.61,-33.87,-26.71,-56.67,-56.24
2021/01/12 23:25:47+0000,-39.38,-47.29,-34.39,-44.55,-55.91,-55.49
2021/01/12 23:26:39+0000,-39.15,-47.14,-34.27,-42.88,-55.64,-55.71
2021/01/12 23:27:31+0000,-38.84,-49.08,-34.10,-26.93,-55.37,-56.14
2021/01/12 23:28:23+0000,-38.80,-48.61,-33.86,-27.13,-55.31,-55.83
2021/01/12 23:29:15+0000,-39.55,-48.16,-34.08,-49.60,-55.72,-56.02
2021/01/12 23:30:08+0000,-38.99,-48.84,-34.16,-49.57,-55.30,-55.96
2021/01/12 23:31:08+0000,-39.72,-47.92,-33.86,-50.25,-54.93,-55.82
2021/01/12 23:32:00+0000,-39.28,-47.86,-34.03,-26.94,-55.26,-56.13
2021/01/12 23:32:52+0000,-39.34,-50.14,-34.13,-27.23,-54.96,-56.10
2021/01/12 23:33:44+0000,-38.71,-48.12,-33.84,-51.05,-55.16,-55.77
2021/01/12 23:34:36+0000,-39.48,-49.68,-35.02,-51.22,-54.42,-55.94
2021/01/12 23:35:28+0000,-39.86,-48.61,-34.01,-27.15,-55.12,-55.63
2021/01/12 23:36:20+0000,-39.99,-48.37,-34.09,-52.02,-54.29,-55.77
2021/01/12 23:37:13+0000,-39.68,-48.36,-34.46,-50.89,-54.74,-56.23
2021/01/12 23:38:05+0000,-39.16,-48.10,-34.01,-51.99,-54.44,-56.06
2021/01/12 23:38:57+0000,-40.05,-48.52,-34.11,-48.89,-54.33,-56.06
2021/01/12 23:39:49+0000,-39.59,-48.50,-34.03,-52.87,-53.88,-56.02
2021/01/12 23:40:41+0000,-39.24,-47.97,-34.86,-51.95,-54.43,-55.51
2021/01/12 23:41:42+0000,-39.59,-46.38,-34.28,-51.11,-53.95,-55.75
2021/01/12 23:42:34+0000,-38.92,-49.34,-33.67,-49.40,-53.75,-55.55
2021/01/12 23:43:26+0000,-38.92,-48.43,-34.35,-45.96,-54.11,-55.15
2021/01/12 23:44:18+0000,-39.77,-47.86,-34.36,-49.20,-54.39,-55.45
2021/01/12 23:45:10+0000,-38.65,-48.20,-34.43,-50.12,-54.05,-55.44
2021/01/12 23:46:02+0000,-39.49,-48.18,-34.51,-43.29,-54.23,-55.94
2021/01/12 23:46:54+0000,-39.13,-48.97,-34.16,-45.74,-54.40,-55.77
2021/01/12 23:47:46+0000,-38.81,-46.72,-33.88,-50.17,-54.10,-55.62
2021/01/12 23:48:38+0000,-38.67,-49.47,-34.65,-49.70,-53.92,-55.51
2021/01/12 23:49:30+0000,-39.35,-48.44,-34.79,-45.93,-54.14,-55.48
2021/01/12 23:50:23+0000,-39.21,-49.33,-34.28,-45.10,-54.22,-56.02
2021/01/12 23:51:23+0000,-39.45,-50.44,-34.43,-50.57,-54.30,-55.19
2021/01/12 23:52:15+0000,-39.07,-48.31,-34.20,-45.46,-54.53,-56.01
2021/01/12 23:53:07+0000,-38.66,-48.91,-33.76,-49.36,-54.47,-55.84
2021/01/12 23:53:59+0000,-38.47,-48.31,-34.49,-49.56,-54.48,-55.88
2021/01/12 23:54:51+0000,-39.20,-49.09,-33.62,-46.28,-54.15,-55.65
2021/01/12 23:55:43+0000,-38.73,-47.87,-34.22,-51.00,-53.89,-56.00
2021/01/12 23:56:35+0000,-37.98,-48.41,-34.04,-52.21,-54.55,-55.81
2021/01/12 23:57:27+0000,-38.31,-48.38,-34.26,-47.35,-54.72,-55.79
2021/01/12 23:58:19+0000,-38.76,-47.84,-34.34,-52.71,-54.43,-56.31
2021/01/12 23:59:12+0000,-39.35,-49.51,-34.01,-46.34,-54.19,-56.22
2021/01/13 00:00:04+0000,-39.10,-49.55,-33.69,-52.83,-54.27,-55.91
2021/01/13 00:01:09+0000,-39.13,-46.98,-33.83,-50.45,-54.88,-55.98
2021/01/13 00:02:02+0000,-38.62,-48.27,-34.43,-46.22,-54.39,-56.19
2021/01/13 00:02:54+0000,-38.96,-48.20,-34.50,-45.48,-53.87,-56.26
2021/01/13 00:03:46+0000,-37.98,-47.93,-34.31,-51.51,-54.98,-56.00
2021/01/13 00:04:38+0000,-38.89,-49.39,-34.05,-49.18,-55.19,-56.15
2021/01/13 00:05:30+0000,-38.73,-48.24,-34.22,-51.17,-54.36,-55.89
2021/01/13 00:06:22+0000,-37.59,-48.43,-34.11,-51.70,-54.80,-55.76
2021/01/13 00:07:14+0000,-38.19,-48.03,-33.77,-51.75,-54.73,-55.88
2021/01/13 00:08:06+0000,-39.09,-49.58,-33.52,-51.79,-54.47,-56.09
2021/01/13 00:08:58+0000,-38.02,-47.45,-34.42,-48.21,-54.75,-56.05
2021/01/13 00:09:50+0000,-38.29,-49.77,-34.23,-50.54,-55.02,-55.46
2021/01/13 00:10:42+0000,-39.13,-47.69,-34.05,-49.41,-54.58,-55.93
2021/01/13 00:11:42+0000,-38.76,-46.90,-34.35,-51.35,-54.44,-55.57
2021/01/13 00:12:34+0000,-39.16,-46.96,-26.44,-52.68,-54.48,-56.26
2021/01/13 00:13:26+0000,-38.88,-48.55,-34.10,-50.81,-54.88,-55.47
2021/01/13 00:14:19+0000,-38.97,-48.40,-33.84,-52.38,-54.92,-54.85
2021/01/13 00:15:11+0000,-38.72,-47.17,-34.34,-51.10,-55.26,-55.69
2021/01/13 00:16:03+0000,-20.12,-47.36,-33.92,-51.76,-55.43,-55.68
2021/01/13 00:16:55+0000,-38.82,-48.40,-33.86,-51.02,-56.54,-55.37
2021/01/13 00:17:47+0000,-38.37,-48.61,-33.92,-51.63,-55.84,-55.64
2021/01/13 00:18:39+0000,-38.96,-46.94,-33.86,-51.46,-56.44,-55.85
2021/01/13 00:19:31+0000,-38.83,-47.29,-33.89,-52.22,-56.03,-56.10
2021/01/13 00:20:23+0000,-38.20,-49.28,-33.49,-52.67,-55.78,-56.59
2021/01/13 00:21:23+0000,-38.02,-49.31,-33.81,-50.84,-56.00,-56.05
2021/01/13 00:22:15+0000,-38.34,-47.78,-34.34,-51.92,-55.72,-55.80
2021/01/13 00:23:07+0000,-38.25,-49.03,-33.29,-51.59,-55.86,-56.13
2021/01/13 00:24:00+0000,-38.21,-48.62,-33.49,-52.38,-55.86,-56.38
2021/01/13 00:24:52+0000,-37.31,-50.05,-34.18,-52.43,-56.14,-56.20
2021/01/13 00:25:44+0000,-38.86,-47.38,-34.05,-52.42,-55.96,-55.62
2021/01/13 00:26:36+0000,-37.20,-49.52,-33.83,-52.80,-55.92,-55.77
2021/01/13 00:27:28+0000,-37.59,-47.14,-34.23,-51.88,-56.24,-56.20
2021/01/13 00:28:20+0000,-36.66,-47.76,-34.11,-52.67,-55.81,-55.78
2021/01/13 00:29:12+0000,-36.81,-48.43,-34.45,-52.04,-55.47,-55.97
2021/01/13 00:30:04+0000,-36.09,-49.37,-34.65,-52.77,-56.21,-55.91
2021/01/13 00:31:04+0000,-37.33,-48.95,-34.33,-53.72,-56.00,-55.61
2021/01/13 00:31:56+0000,-36.80,-48.56,-34.26,-52.15,-56.00,-55.70
2021/01/13 00:32:48+0000,-37.24,-47.78,-33.99,-52.55,-56.03,-55.73
2021/01/13 00:33:40+0000,-37.64,-48.41,-35.22,-51.76,-56.21,-55.62
2021/01/13 00:34:32+0000,-37.57,-48.73,-34.65,-51.85,-55.99,-56.27
2021/01/13 00:35:24+0000,-38.14,-49.51,-34.65,-51.96,-56.41,-55.93
2021/01/13 00:36:17+0000,-37.56,-47.56,-34.07,-51.46,-55.92,-55.83
2021/01/13 00:37:09+0000,-36.00,-47.96,-34.65,-51.34,-56.18,-55.48
2021/01/13 00:38:01+0000,-37.39,-48.49,-34.35,-52.24,-55.75,-56.21
2021/01/13 00:38:53+0000,-37.59,-51.10,-34.42,-52.37,-55.76,-55.53
2021/01/13 00:39:45+0000,-36.96,-47.35,-33.95,-51.48,-55.63,-55.95
2021/01/13 00:40:37+0000,-37.17,-49.50,-33.70,-51.40,-55.41,-55.04
2021/01/13 00:41:36+0000,-38.14,-50.12,-33.75,-51.89,-56.18,-55.96
2021/01/13 00:42:28+0000,-38.14,-49.16,-34.33,-52.54,-55.49,-55.64
2021/01/13 00:43:20+0000,-36.84,-49.23,-34.38,-52.58,-55.54,-55.09
2021/01/13 00:44:13+0000,-37.24,-47.94,-34.69,-52.11,-55.12,-56.03
2021/01/13 00:45:05+0000,-36.51,-49.15,-34.30,-51.81,-54.47,-55.41
2021/01/13 00:45:57+0000,-37.30,-49.01,-33.74,-51.96,-55.56,-55.48
2021/01/13 00:46:49+0000,-38.63,-46.47,-33.70,-52.83,-55.74,-56.16
2021/01/13 00:47:41+0000,-38.51,-48.35,-34.89,-52.02,-55.87,-55.43
2021/01/13 00:48:33+0000,-37.98,-47.91,-34.14,-52.52,-55.71,-55.59
2021/01/13 00:49:25+0000,-37.32,-48.67,-34.07,-52.77,-55.32,-55.49
2021/01/13 00:50:17+0000,-38.09,-47.20,-33.97,-51.98,-55.44,-55.54
2021/01/13 00:51:18+0000,-37.84,-47.81,-34.19,-52.76,-55.87,-56.08
2021/01/13 00:52:10+0000,-36.50,-48.98,-34.79,-52.32,-55.34,-55.86
2021/01/13 00:53:02+0000,-37.30,-48.44,-34.47,-52.44,-55.48,-55.55
2021/01/13 00:53:54+0000,-35.77,-47.59,-34.74,-52.15,-55.90,-55.59
2021/01/13 00:54:46+0000,-38.67,-47.65,-34.72,-52.61,-55.73,-55.65
2021/01/13 00:55:38+0000,-38.19,-50.03,-34.53,-51.86,-55.75,-55.96
2021/01/13 00:56:30+0000,-32.93,-49.34,-35.02,-52.42,-55.22,-56.13
2021/01/13 00:57:22+0000,-36.02,-50.59,-35.40,-52.27,-54.66,-56.41
2021/01/13 00:58:14+0000,-36.58,-47.32,-34.69,-52.83,-54.65,-57.12
2021/01/13 00:59:06+0000,-37.77,-50.24,-34.85,-53.12,-54.32,-56.56
2021/01/13 00:59:58+0000,-37.34,-49.29,-34.69,-52.70,-54.78,-56.58
2021/01/13 01:00:50+0000,-37.31,-46.22,-34.98,-52.61,-54.13,-56.60
2021/01/13 01:01:51+0000,-37.49,-50.66,-35.19,-53.21,-54.19,-56.93
2021/01/13 01:02:43+0000,-37.16,-46.98,-35.42,-52.68,-53.93,-57.48
2021/01/13 01:03:35+0000,-37.63,-49.91,-34.95,-53.19,-54.36,-56.94
2021/01/13 01:04:27+0000,-37.66,-46.58,-34.96,-53.21,-54.13,-57.06
2021/01/13 01:05:19+0000,-36.54,-47.95,-35.06,-52.61,-53.47,-56.58
2021/01/13 01:06:11+0000,-37.72,-48.97,-34.80,-52.92,-54.41,-56.63
2021/01/13 01:07:03+0000,-37.13,-47.90,-34.86,-53.44,-54.30,-56.78
2021/01/13 01:07:55+0000,-37.28,-48.07,-34.89,-52.13,-53.86,-56.86
2021/01/13 01:08:47+0000,-36.99,-48.21,-34.67,-52.34,-53.66,-56.51
2021/01/13 01:09:40+0000,-37.12,-48.32,-35.26,-52.52,-53.24,-56.32
2021/01/13 01:10:32+0000,-38.15,-49.14,-34.08,-52.82,-53.53,-55.82
2021/01/13 01:11:35+0000,-37.18,-50.40,-34.63,-52.33,-53.55,-56.07
2021/01/13 01:12:27+0000,-37.64,-49.07,-34.55,-51.85,-53.99,-55.90
2021/01/13 01:13:19+0000,-37.63,-48.81,-34.48,-52.03,-54.04,-55.92
2021/01/13 01:14:11+0000,-37.28,-47.18,-35.17,-52.33,-53.88,-55.51
2021/01/13 01:15:03+0000,-37.95,-49.69,-34.53,-52.03,-52.83,-55.66
2021/01/13 01:15:55+0000,-38.27,-49.66,-34.66,-52.52,-52.97,-56.09
2021/01/13 01:16:47+0000,-35.42,-48.96,-34.11,-52.06,-53.23,-55.94
2021/01/13 01:17:39+0000,-37.36,-49.26,-35.00,-52.97,-53.24,-55.47
2021/01/13 01:18:31+0000,-37.98,-46.51,-34.20,-52.76,-52.33,-56.34
2021/01/13 01:19:23+0000,-36.33,-47.37,-34.30,-52.01,-53.77,-55.60
2021/01/13 01:20:16+0000,-37.39,-41.25,-34.72,-51.98,-53.52,-55.71
2021/01/13 01:21:16+0000,-37.99,-40.13,-34.80,-52.07,-54.14,-56.68
2021/01/13 01:22:08+0000,-38.04,-49.43,-34.98,-51.45,-52.37,-55.96
2021/01/13 01:23:00+0000,-38.47,-47.08,-34.28,-52.46,-53.29,-56.53
2021/01/13 01:23:52+0000,-38.12,-51.35,-34.19,-51.93,-52.56,-56.36
2021/01/13 01:24:44+0000,-37.55,-41.30,-33.93,-52.09,-53.60,-56.32
2021/01/13 01:25:36+0000,-38.11,-41.03,-34.48,-51.88,-54.02,-56.19
2021/01/13 01:26:28+0000,-37.26,-39.85,-34.62,-51.66,-53.01,-55.58
2021/01/13 01:27:20+0000,-38.32,-50.98,-34.64,-51.73,-53.10,-56.28
2021/01/13 01:28:12+0000,-37.14,-49.25,-35.15,-52.05,-54.39,-56.32
2021/01/13 01:29:04+0000,-36.41,-46.80,-34.83,-52.52,-53.46,-56.37
2021/01/13 01:29:57+0000,-37.80,-39.78,-34.77,-52.25,-53.56,-56.13
2021/01/13 01:30:49+0000,-37.65,-48.62,-35.22,-52.64,-54.17,-56.23
2021/01/13 01:31:55+0000,-36.57,-39.54,-34.39,-51.91,-53.08,-55.71
2021/01/13 01:32:47+0000,-36.09,-49.04,-34.88,-51.76,-53.39,-55.96
2021/01/13 01:33:39+0000,-37.23,-48.27,-34.55,-51.47,-54.21,-56.13
2021/01/13 01:34:31+0000,-37.05,-40.28,-34.61,-52.00,-54.02,-55.60
2021/01/13 01:35:23+0000,-38.49,-48.35,-33.97,-52.23,-53.73,-56.28
2021/01/13 01:36:15+0000,-38.75,-49.83,-34.58,-51.97,-53.67,-56.00
2021/01/13 01:37:07+0000,-38.10,-42.06,-35.16,-51.77,-53.11,-55.41
2021/01/13 01:37:59+0000,-36.70,-41.61,-34.45,-51.75,-53.97,-55.42
2021/01/13 01:38:51+0000,-39.09,-51.84,-35.12,-52.60,-53.54,-55.97
2021/01/13 01:39:43+0000,-36.83,-49.45,-35.00,-51.82,-53.95,-56.17
2021/01/13 01:40:35+0000,-37.71,-40.50,-35.08,-52.02,-53.09,-55.91
2021/01/13 01:41:40+0000,-37.35,-50.05,-34.79,-52.74,-53.48,-56.18
2021/01/13 01:42:32+0000,-36.61,-40.46,-34.89,-52.52,-53.06,-55.87
2021/01/13 01:43:24+0000,-36.87,-49.69,-35.11,-52.46,-54.06,-55.95
2021/01/13 01:44:17+0000,-37.23,-47.41,-34.62,-51.92,-54.09,-55.74
2021/01/13 01:45:09+0000,-37.74,-47.94,-35.18,-52.29,-54.46,-55.69
2021/01/13 01:46:01+0000,-37.39,-41.71,-34.99,-51.39,-54.09,-56.12
2021/01/13 01:46:53+0000,-36.41,-50.60,-34.41,-52.76,-53.67,-56.10
2021/01/13 01:47:45+0000,-37.43,-49.71,-34.81,-52.10,-54.79,-54.35
2021/01/13 01:48:37+0000,-37.40,-51.21,-35.29,-52.59,-53.87,-55.32
2021/01/13 01:49:29+0000,-37.21,-49.43,-34.66,-52.01,-53.50,-53.57
2021/01/13 01:50:21+0000,-36.24,-51.23,-34.77,-52.25,-53.92,-54.56
2021/01/13 01:51:20+0000,-35.84,-49.57,-34.68,-48.82,-53.94,-54.44
2021/01/13 01:52:12+0000,-35.39,-49.52,-35.33,-47.87,-53.89,-54.58
2021/01/13 01:53:04+0000,-36.68,-47.76,-35.36,-47.76,-54.44,-55.31
2021/01/13 01:53:56+0000,-36.53,-47.57,-35.45,-47.31,-54.30,-55.86
2021/01/13 01:54:48+0000,-37.36,-49.76,-35.57,-47.01,-54.66,-56.11
2021/01/13 01:55:40+0000,-36.05,-49.06,-35.33,-48.19,-53.85,-55.76
2021/01/13 01:56:32+0000,-34.70,-47.66,-35.69,-47.93,-54.27,-55.43
2021/01/13 01:57:24+0000,-35.44,-50.17,-35.71,-46.03,-54.63,-56.03
2021/01/13 01:58:16+0000,-36.00,-47.14,-35.68,-46.52,-54.37,-56.33
2021/01/13 01:59:08+0000,-36.64,-50.05,-35.97,-46.82,-54.79,-56.17
2021/01/13 02:00:00+0000,-37.46,-49.55,-35.52,-47.67,-54.18,-56.05
2021/01/13 02:01:06+0000,-36.94,-51.03,-35.25,-48.40,-54.02,-56.39
2021/01/13 02:01:58+0000,-36.63,-48.54,-35.49,-47.25,-54.54,-56.44
2021/01/13 02:02:50+0000,-36.91,-49.57,-35.14,-46.25,-54.32,-55.27
2021/01/13 02:03:42+0000,-36.45,-46.77,-35.85,-46.21,-53.95,-56.64
2021/01/13 02:04:34+0000,-36.60,-49.75,-36.33,-45.45,-53.50,-56.11
2021/01/13 02:05:26+0000,-35.90,-49.29,-35.48,-46.14,-53.94,-56.57
2021/01/13 02:06:18+0000,-36.25,-49.64,-35.54,-46.37,-53.78,-55.75
2021/01/13 02:07:10+0000,-35.29,-49.92,-35.14,-47.70,-53.52,-55.98
2021/01/13 02:08:02+0000,-36.35,-46.96,-35.38,-47.57,-53.95,-56.17
2021/01/13 02:08:54+0000,-36.09,-46.65,-35.25,-46.81,-54.01,-55.75
2021/01/13 02:09:47+0000,-36.50,-49.46,-34.66,-47.17,-54.18,-56.00
2021/01/13 02:10:39+0000,-35.84,-49.41,-35.38,-46.57,-54.02,-55.22
2021/01/13 02:11:39+0000,-36.33,-49.92,-35.54,-46.98,-54.60,-56.64
2021/01/13 02:12:31+0000,-36.61,-46.66,-35.00,-45.62,-54.09,-56.33
2021/01/13 02:13:23+0000,-35.54,-49.83,-35.28,-45.91,-53.89,-55.76
2021/01/13 02:14:15+0000,-36.25,-50.05,-34.94,-46.20,-53.77,-55.77
2021/01/13 02:15:07+0000,-35.07,-49.85,-35.11,-45.30,-54.38,-55.99
2021/01/13 02:15:59+0000,-36.10,-46.97,-35.72,-46.03,-54.13,-56.02
2021/01/13 02:16:51+0000,-35.34,-50.22,-35.24,-46.71,-54.74,-56.42
2021/01/13 02:17:43+0000,-35.77,-50.44,-35.80,-47.17,-54.10,-56.61
2021/01/13 02:18:35+0000,-36.13,-50.87,-35.27,-47.31,-54.76,-56.68
2021/01/13 02:19:27+0000,-35.83,-47.31,-35.97,-46.76,-54.16,-55.74
2021/01/13 02:20:20+0000,-35.33,-49.93,-35.51,-45.51,-54.17,-55.61
2021/01/13 02:21:20+0000,-35.47,-50.15,-34.79,-46.58,-54.96,-55.58
2021/01/13 02:22:12+0000,-35.78,-49.56,-35.77,-46.23,-54.33,-55.13
2021/01/13 02:23:04+0000,-36.34,-47.09,-35.23,-46.29,-54.59,-55.36
2021/01/13 02:23:56+0000,-34.49,-46.82,-35.30,-45.63,-54.46,-55.38
2021/01/13 02:24:48+0000,-36.45,-50.09,-35.25,-46.01,-54.20,-55.65
2021/01/13 02:25:41+0000,-35.46,-49.38,-34.84,-46.16,-54.52,-55.64
2021/01/13 02:26:33+0000,-36.38,-49.64,-35.02,-45.99,-53.93,-56.11
2021/01/13 02:27:25+0000,-34.80,-49.71,-35.46,-46.21,-53.60,-55.42
2021/01/13 02:28:17+0000,-35.54,-49.60,-34.97,-46.79,-54.62,-56.16
2021/01/13 02:29:09+0000,-36.20,-50.15,-35.69,-46.88,-54.34,-55.63
2021/01/13 02:30:01+0000,-35.91,-49.58,-34.96,-46.67,-54.38,-55.71
2021/01/13 02:31:03+0000,-35.32,-49.94,-35.35,-45.83,-54.43,-55.62
2021/01/13 02:31:55+0000,-35.81,-49.04,-34.85,-46.38,-54.68,-55.22
2021/01/13 02:32:47+0000,-34.74,-49.67,-35.70,-45.63,-54.19,-55.78
2021/01/13 02:33:39+0000,-35.99,-49.96,-34.99,-46.01,-54.41,-56.21